Location: Guilderland
(42.7045°N, 73.9115°W)
Time: 17:18:53
(UTC+00:00)

Cosmos 1339 Rocket - Pass Details

Date: 24 January 2020
Orbit: 941 x 1006 km, 82.9° (Epoch: 22 February)

Event Time Altitude Azimuth Distance (km) Brightness Sun altitude
Rises 23:07:54 0° 353° (N) 3,618 7.4 -12.9°
Reaches altitude 10° 23:10:24 10° 355° (N) 2,672 6.7 -13.3°
Maximum altitude 23:16:30 76° 81° (E) 982 4.4 -14.4°
Drops below altitude 10° 23:22:38 10° 168° (SSE) 2,684 6.8 -15.5°
Sets 23:25:08 0° 170° (S) 3,635 7.5 -16.0°
